Starlink 30376

operational
NORAD ID: 57782 Int'l Des: 2023-134 Owner: SPXS Country: US Constellation: starlink
LEOCIRCULAR

Starlink 30376について

説明を読み込み中...

リアルタイム位置

3D地球を読み込み中...

次回通過

高度履歴

Altitude vs Time

uPlot chart will show altitude changes over time

軌道要素

1 57782U 23134M 25352.18966931 -.00000350 00000-0 -10848-4 0 9997
2 57782 43.0033 280.1776 0001123 270.3796 89.6918 15.02537762127218
Epoch: Dec 18, 2025 • Age: 19 hours

現在のステータス

高度 569.9 km
速度 7.58 km/s
衛星直下点 -38.63°S, 78.74°E
打ち上げ日 Sep 4, 2023
運用期間 2.2 years
タイプ internet

技術仕様

分類 Payload
質量 730.00 kg
乾燥質量 700.00 kg
総質量 730.00 kg
長さ 0.30 m
直径 4.10 m
スパン 29.00 m
形状 Box + pan
製造者 SPXS
バスタイプ Starlink V2M
フェーズステータス In Orbit
所有者/国 SPXS/US

大規模コンステレーション

Loading constellations...